| time (UTC) | temp F | wind direction | speed knots | gust knots | rain 1hr in | rain 24hr in | rain mn in | humidity % | barometer mb |
| 20260902071553 | 56 | 274 | 1.7 | 2.6 | 0.00 | 0.00 | 0.00 | 97 | 1022.4 |
| 20260902070053 | 56 | 274 | 1.7 | 2.6 | 0.00 | 0.00 | 0.00 | 97 | 1022.3 |
| 20260902064549 | 57 | 287 | 0.0 | 2.6 | 0.00 | 0.00 | 0.00 | 97 | 1022.3 |
| 20260902063101 | 57 | 287 | 0.0 | 2.6 | 0.00 | 0.00 | 0.00 | 97 | 1022.3 |
| 20260902061606 | 57 | 287 | 0.0 | 2.6 | 0.00 | 0.00 | 0.00 | 97 | 1022.2 |
| 20260902060047 | 57 | 286 | 0.9 | 2.6 | 0.00 | 0.00 | 0.00 | 97 | 1022.0 |
| 20260902054544 | 57 | 286 | 0.0 | 2.6 | 0.00 | 0.00 | 0.00 | 97 | 1021.9 |
| 20260902053041 | 57 | 286 | 0.0 | 3.5 | 0.00 | 0.00 | 0.00 | 97 | 1021.8 |
| 20260902051538 | 57 | 286 | 2.6 | 4.3 | 0.00 | 0.00 | 0.00 | 96 | 1021.6 |
| 20260902050040 | 57 | 273 | 0.0 | 2.6 | 0.00 | 0.00 | 0.00 | 96 | 1021.5 |
| 20260902044535 | 57 | 273 | 1.7 | 2.6 | 0.00 | 0.00 | 0.00 | 96 | 1021.3 |
| 20260902043035 | 58 | 273 | 1.7 | 2.6 | 0.00 | 0.00 | 0.00 | 96 | 1021.1 |
| 20260902041544 | 58 | 273 | 1.7 | 3.5 | 0.00 | 0.00 | 0.00 | 95 | 1020.9 |
| 20260902040030 | 58 | 267 | 1.7 | 3.5 | 0.00 | 0.00 | 0.00 | 95 | 1020.7 |
| 20260902034526 | 58 | 275 | 1.7 | 3.5 | 0.00 | 0.00 | 0.00 | 95 | 1020.7 |
| 20260902033026 | 58 | 272 | 1.7 | 3.5 | 0.00 | 0.00 | 0.00 | 95 | 1020.8 |
| 20260902031525 | 58 | 275 | 1.7 | 3.5 | 0.00 | 0.00 | 0.00 | 95 | 1020.8 |
| 20260902030023 | 58 | 294 | 0.9 | 1.7 | 0.00 | 0.00 | 0.00 | 95 | 1020.6 |
| 20260902024524 | 58 | 270 | 0.0 | 1.7 | 0.00 | 0.00 | 0.00 | 94 | 1020.6 |
| 20260902023022 | 58 | 270 | 0.9 | 1.7 | 0.00 | 0.00 | 0.00 | 94 | 1020.6 |
| 20260902021521 | 59 | 270 | 1.7 | 2.6 | 0.00 | 0.00 | 0.00 | 94 | 1020.5 |
| 20260902020040 | 59 | 265 | 1.7 | 3.5 | 0.00 | 0.00 | 0.00 | 93 | 1020.5 |
| 20260902014519 | 59 | 284 | 1.7 | 3.5 | 0.00 | 0.00 | 0.00 | 93 | 1020.4 |
| 20260902013019 | 60 | 270 | 1.7 | 2.6 | 0.00 | 0.00 | 0.00 | 92 | 1020.3 |
| 20260902011519 | 60 | 275 | 1.7 | 3.5 | 0.00 | 0.00 | 0.00 | 92 | 1020.3 |
| 20260902010025 | 60 | 273 | 1.7 | 3.5 | 0.00 | 0.00 | 0.00 | 91 | 1020.2 |
| 20260902004516 | 61 | 309 | 1.7 | 3.5 | 0.00 | 0.00 | 0.00 | 90 | 1019.9 |
| 20260902003015 | 62 | 277 | 0.9 | 2.6 | 0.00 | 0.00 | 0.00 | 90 | 1019.9 |
| 20260902001518 | 62 | 325 | 0.9 | 2.6 | 0.00 | 0.00 | 0.00 | 89 | 1019.8 |
| 20260902000024 | 63 | 275 | 0.9 | 2.6 | 0.00 | 0.00 | 0.00 | 88 | 1019.8 |
| 20260901234513 | 64 | 305 | 0.9 | 2.6 | 0.00 | 0.00 | 0.00 | 87 | 1019.7 |
| 20260901233012 | 64 | 270 | 0.9 | 2.6 | 0.00 | 0.00 | 0.00 | 85 | 1019.8 |
| 20260901231516 | 65 | 270 | 0.9 | 2.6 | 0.00 | 0.00 | 0.00 | 85 | 1019.7 |
| 20260901230011 | 65 | 250 | 0.9 | 2.6 | 0.00 | 0.00 | 0.00 | 84 | 1019.6 |
| 20260901224514 | 66 | 185 | 0.9 | 5.2 | 0.00 | 0.00 | 0.00 | 84 | 1019.4 |
| 20260901223008 | 66 | 184 | 1.7 | 7.8 | 0.00 | 0.00 | 0.00 | 83 | 1019.4 |
| 20260901221517 | 67 | 158 | 2.6 | 7.8 | 0.00 | 0.00 | 0.00 | 83 | 1019.3 |
| 20260901220007 | 67 | 146 | 1.7 | 7.0 | 0.00 | 0.00 | 0.00 | 82 | 1019.3 |
| 20260901214503 | 68 | 196 | 3.5 | 7.0 | 0.00 | 0.00 | 0.00 | 82 | 1019.3 |
| 20260901213002 | 68 | 181 | 2.6 | 6.1 | 0.00 | 0.00 | 0.00 | 81 | 1019.0 |
| 20260901211600 | 68 | 111 | 3.5 | 7.0 | 0.00 | 0.00 | 0.00 | 81 | 1018.9 |
| 20260901210110 | 68 | 144 | 5.2 | 8.7 | 0.00 | 0.00 | 0.00 | 82 | 1018.9 |
| 20260901204558 | 67 | 133 | 5.2 | 9.6 | 0.00 | 0.00 | 0.00 | 81 | 1018.8 |
| 20260901203115 | 67 | 155 | 5.2 | 9.6 | 0.00 | 0.00 | 0.00 | 82 | 1018.7 |
| 20260901201556 | 67 | 157 | 6.1 | 10.4 | 0.00 | 0.00 | 0.00 | 82 | 1018.8 |
| 20260901200059 | 67 | 150 | 5.2 | 11.3 | 0.00 | 0.00 | 0.00 | 81 | 1018.9 |
| 20260901194603 | 68 | 156 | 6.1 | 10.4 | 0.00 | 0.00 | 0.00 | 79 | 1019.1 |
| 20260901193054 | 68 | 157 | 6.1 | 9.6 | 0.00 | 0.00 | 0.00 | 79 | 1019.1 |
| 20260901191600 | 68 | 145 | 4.3 | 8.7 | 0.00 | 0.00 | 0.00 | 80 | 1019.0 |
| 20260901190109 | 67 | 148 | 5.2 | 8.7 | 0.00 | 0.00 | 0.00 | 80 | 1019.0 |
| 20260901184551 | 66 | 133 | 7.0 | 8.7 | 0.00 | 0.00 | 0.00 | 83 | 1019.0 |
| 20260901183050 | 67 | 140 | 4.3 | 7.0 | 0.00 | 0.00 | 0.00 | 84 | 1019.0 |
| 20260901181550 | 67 | 113 | 3.5 | 4.3 | 0.00 | 0.00 | 0.00 | 82 | 1019.0 |
| 20260901180049 | 67 | 105 | 4.3 | 6.1 | 0.00 | 0.00 | 0.00 | 83 | 1018.8 |
| 20260901174559 | 67 | 116 | 2.6 | 4.3 | 0.00 | 0.00 | 0.00 | 82 | 1018.8 |
| 20260901173046 | 67 | 117 | 2.6 | 4.3 | 0.00 | 0.00 | 0.00 | 83 | 1018.8 |
| 20260901171547 | 67 | 131 | 1.7 | 2.6 | 0.00 | 0.00 | 0.00 | 82 | 1018.9 |
| 20260901170044 | 66 | 126 | 1.7 | 3.5 | 0.00 | 0.00 | 0.00 | 82 | 1018.9 |
| 20260901164546 | 66 | 126 | 1.7 | 3.5 | 0.00 | 0.00 | 0.00 | 81 | 1018.9 |
| 20260901163040 | 65 | 146 | 1.7 | 3.5 | 0.00 | 0.00 | 0.00 | 82 | 1018.8 |
| 20260901161540 | 65 | 128 | 0.9 | 2.6 | 0.00 | 0.00 | 0.00 | 82 | 1018.9 |
| 20260901160040 | 64 | 126 | 2.6 | 3.5 | 0.00 | 0.00 | 0.00 | 82 | 1019.2 |
| 20260901154538 | 64 | 129 | 1.7 | 3.5 | 0.00 | 0.00 | 0.00 | 82 | 1019.2 |
| 20260901153043 | 63 | 118 | 2.6 | 4.3 | 0.00 | 0.00 | 0.00 | 82 | 1019.3 |
| 20260901151538 | 63 | 114 | 3.5 | 6.1 | 0.00 | 0.00 | 0.00 | 83 | 1019.2 |
| 20260901150042 | 64 | 121 | 5.2 | 6.1 | 0.00 | 0.00 | 0.00 | 81 | 1019.1 |
| 20260901144537 | 63 | 117 | 7.0 | 8.7 | 0.00 | 0.00 | 0.00 | 83 | 1019.0 |
| 20260901143038 | 64 | 119 | 5.2 | 7.8 | 0.00 | 0.00 | 0.00 | 81 | 1019.1 |
| 20260901141536 | 65 | 101 | 5.2 | 8.7 | 0.00 | 0.00 | 0.00 | 79 | 1019.2 |
| 20260901140033 | 64 | 105 | 4.3 | 8.7 | 0.00 | 0.00 | 0.00 | 81 | 1019.1 |
| 20260901134534 | 63 | 80 | 4.3 | 7.8 | 0.00 | 0.00 | 0.00 | 83 | 1019.2 |
| 20260901133037 | 63 | 121 | 5.2 | 7.0 | 0.00 | 0.00 | 0.00 | 82 | 1019.4 |
| 20260901131527 | 62 | 106 | 5.2 | 7.0 | 0.00 | 0.00 | 0.00 | 84 | 1019.2 |
| 20260901130027 | 61 | 131 | 2.6 | 4.3 | 0.00 | 0.00 | 0.00 | 87 | 1019.2 |
| 20260901124526 | 61 | 129 | 4.3 | 6.1 | 0.00 | 0.00 | 0.00 | 88 | 1019.2 |
| 20260901123027 | 60 | 107 | 3.5 | 6.1 | 0.00 | 0.00 | 0.00 | 90 | 1019.2 |
| 20260901121525 | 59 | 113 | 2.6 | 3.5 | 0.00 | 0.00 | 0.00 | 90 | 1019.0 |
| 20260901120023 | 60 | 136 | 1.7 | 2.6 | 0.00 | 0.00 | 0.00 | 90 | 1019.0 |
| 20260901114523 | 59 | 279 | 0.9 | 1.7 | 0.00 | 0.00 | 0.00 | 92 | 1019.0 |
| 20260901113021 | 58 | 279 | 0.0 | 0.0 | 0.00 | 0.00 | 0.00 | 95 | 1018.9 |
| 20260901111520 | 57 | 279 | 0.0 | 1.7 | 0.00 | 0.00 | 0.00 | 95 | 1018.6 |
| 20260901110019 | 56 | 269 | 0.9 | 2.6 | 0.00 | 0.00 | 0.00 | 95 | 1018.8 |
| 20260901104537 | 56 | 305 | 0.9 | 2.6 | 0.00 | 0.00 | 0.00 | 95 | 1018.5 |
| 20260901103017 | 56 | 305 | 0.9 | 2.6 | 0.00 | 0.00 | 0.00 | 95 | 1018.4 |
| 20260901101520 | 55 | 305 | 0.0 | 1.7 | 0.00 | 0.00 | 0.00 | 95 | 1018.2 |
| 20260901100014 | 55 | 305 | 0.9 | 1.7 | 0.00 | 0.00 | 0.00 | 94 | 1018.2 |
| 20260901094512 | 55 | 305 | 0.9 | 1.7 | 0.00 | 0.00 | 0.00 | 94 | 1018.1 |
| 20260901093012 | 55 | 305 | 0.9 | 1.7 | 0.00 | 0.00 | 0.00 | 94 | 1018.2 |
| 20260901091516 | 55 | 305 | 0.9 | 2.6 | 0.00 | 0.00 | 0.00 | 94 | 1018.2 |
| 20260901090015 | 55 | 302 | 0.9 | 2.6 | 0.00 | 0.00 | 0.00 | 94 | 1018.2 |
| 20260901084509 | 55 | 281 | 1.7 | 2.6 | 0.00 | 0.00 | 0.00 | 93 | 1018.3 |
| 20260901083008 | 55 | 305 | 0.0 | 2.6 | 0.00 | 0.00 | 0.00 | 93 | 1018.1 |
| 20260901081506 | 55 | 277 | 1.7 | 3.5 | 0.00 | 0.00 | 0.00 | 92 | 1018.3 |
| 20260901080006 | 55 | 288 | 0.9 | 2.6 | 0.00 | 0.00 | 0.00 | 91 | 1018.3 |
| 20260901074504 | 55 | 297 | 0.9 | 2.6 | 0.00 | 0.00 | 0.00 | 91 | 1018.3 |